Printer-friendly version

IAU Minor Planet Center

Minor Planet Center

MPEC 2003-U39 : 2003 UV11

The following Minor Planet Electronic Circular may be linked-to from your own Web pages, but must not otherwise be redistributed electronically.


Read MPEC 2003-U38 Read MPEC 2003-U40


M.P.E.C. 2003-U39                                Issued 2003 Oct. 22, 05:54 UT

     The Minor Planet Electronic Circulars contain information on unusual
         minor planets and routine data on comets.  They are published
   on behalf of Commission 20 of the International Astronomical Union by the
          Minor Planet Center, Smithsonian Astrophysical Observatory,
                          Cambridge, MA 02138, U.S.A.

         Supported in part by the Steven and Michele Kirsch Foundation
             Prepared using the Tamkin Foundation Computer Network

                              MPC@CFA.HARVARD.EDU
          URL http://cfa-www.harvard.edu/iau/mpc.html  ISSN 1523-6714

                                   2003 UV11

Observations:
     K03U11V* C2003 10 21.22741 01 56 19.55 +08 33 46.7          16.2 R      699
     K03U11V  C2003 10 21.24737 01 56 10.83 +08 33 15.3                      699
     K03U11V  C2003 10 21.26740 01 56 01.99 +08 32 43.3                      699
     K03U11V  C2003 10 21.28646 01 55 53.38 +08 32 12.8          16.7        704
     K03U11V  C2003 10 21.28745 01 55 53.10 +08 32 11.7                      699
     K03U11V  C2003 10 21.29846 01 55 48.05 +08 31 54.0          17.0        704
     K03U11V  C2003 10 21.31067 01 55 42.60 +08 31 34.1          16.7        704
     K03U11V  C2003 10 21.32247 01 55 37.34 +08 31 15.0          16.9        704
     K03U11V  C2003 10 21.33418 01 55 32.11 +08 30 56.0          16.8        704
     K03U11V 5C2003 10 21.36303 01 55 19.63 +08 30 10.1          16.5 R      673
     K03U11V 5C2003 10 21.36384 01 55 19.28 +08 30 08.8                      673
     K03U11V 5C2003 10 21.36476 01 55 18.86 +08 30 07.3                      673
     K03U11V 5C2003 10 21.36557 01 55 18.50 +08 30 06.0                      673
     K03U11V 5C2003 10 21.36648 01 55 18.10 +08 30 04.5                      673
     K03U11V 5C2003 10 21.36730 01 55 17.76 +08 30 03.1                      673
     K03U11V  C2003 10 21.40527 01 54 59.98 +08 28 54.9          16.2 R      649
     K03U11V  C2003 10 21.40669 01 54 59.36 +08 28 52.5          16.4 R      649
     K03U11V  C2003 10 21.40813 01 54 58.72 +08 28 50.2          16.2 R      649
     K03U11V 5C2003 10 22.20249 01 48 56.22 +08 05 37.2          16.5 R      673
     K03U11V 5C2003 10 22.20341 01 48 55.74 +08 05 35.3                      673
     K03U11V 5C2003 10 22.20434 01 48 55.24 +08 05 33.6                      673
     K03U11V 5C2003 10 22.20527 01 48 54.81 +08 05 32.0                      673
     K03U11V 5C2003 10 22.20619 01 48 54.34 +08 05 30.0                      673
     K03U11V 5C2003 10 22.20712 01 48 53.87 +08 05 28.3                      673
     K03U11V  C2003 10 22.22518 01 48 43.52 +08 04 51.4          16.1 R      649
     K03U11V  C2003 10 22.22696 01 48 42.62 +08 04 48.0          16.1 R      649
     K03U11V  C2003 10 22.22873 01 48 41.70 +08 04 44.7          16.1 R      649

Observer details:
649 Powell Observatory, Louisburg.  Observers R. Trentman, R. Fredrick.
    0.75-m Newtonian + CCD.
673 Table Mountain Observatory, Wrightwood.  Observer J. Young.  0.6-m
    reflector + CCD.
699 Lowell Observatory-LONEOS.  Observer B. A. Skiff.  0.59-m LONEOS Schmidt
    + CCD.
704 Lincoln Laboratory ETS, New Mexico.  Observers M. Blythe, F. Shelly,
    M. Bezpalko, R. Huber, L. Manguso, D. Torres, R. Kracke, M. McCleary,
    H. Stange.  Measurers J. Stuart, R. Sayer, J. Evans, J. Kommers.  1.0-m
    f/2.15 reflector + CCD.

Orbital elements:
2003 UV11
Epoch 2003 Oct. 8.0 TT = JDT 2452920.5                  MPC
M 318.94627              (2000.0)            P               Q
n   0.57231352     Peri.  124.94479     -0.91895206     -0.39046113
a   1.4367462      Node    32.17492     +0.31936003     -0.81918530
e   0.7615196      Incl.    5.96975     +0.23137909     -0.42008993
P   1.72           H   19.9           G   0.15
From 27 observations 2003 Oct. 21-22.

Ephemeris:
2003 UV11                a,e,i = 1.44, 0.76, 6                   q = 0.3426
Date    TT    R. A. (2000) Decl.     Delta      r     Elong.  Phase     V
2003 10 18    02 14.44   +09 41.1    0.216    1.209   168.9     9.1    17.6
2003 10 20    02 04.20   +09 03.7    0.189    1.184   173.2     5.7    17.1
2003 10 22    01 50.54   +08 12.3    0.163    1.158   177.0     2.6    16.6
2003 10 24    01 31.80   +06 59.3    0.137    1.131   173.3     5.9    16.3
2003 10 26    01 05.22   +05 11.0    0.114    1.105   164.8    13.6    16.2
2003 10 28    00 26.24   +02 24.8    0.093    1.077   152.9    24.9    16.1
2003 10 30    23 28.41   -01 48.3    0.076    1.049   135.9    41.2    16.0
2003 11 01    22 08.09   -07 22.1    0.068    1.021   113.2    63.3    16.3
2003 11 03    20 37.17   -12 25.6    0.069    0.993    88.4    87.6    17.2
2003 11 05    19 19.29   -15 11.5    0.081    0.963    67.3   108.3    18.4
2003 11 07    18 23.79   -16 08.2    0.098    0.934    52.0   123.2    19.8

Kyle E. Smalley              (C) Copyright 2003 MPC           M.P.E.C. 2003-U39

Read MPEC 2003-U38 Read MPEC 2003-U40


Our Web policy. Index to the CBAT/MPC/ICQ pages.


Valid HTML 4.01!